Time,TemperatureF,DewpointF,PressureIn,WindDirection,WindDirectionDegrees,WindSpeedMPH,WindSpeedGustMPH,Humidity,HourlyPrecipIn,Conditions,Clouds,dailyrainin,SoftwareType,DateUTC
2013-12-05 00:13:00,69.0,65.0,30.05,North,356,0.0,0.0,88,0.00,,,0.00,,2013-12-05 05:13:00,
2013-12-05 00:23:00,69.0,65.0,30.05,North,356,0.0,0.0,88,0.00,,,0.00,,2013-12-05 05:23:00,
2013-12-05 00:33:00,69.0,65.0,30.05,North,356,0.0,0.0,88,0.00,,,0.00,,2013-12-05 05:33:00,
2013-12-05 01:22:00,68.0,65.0,30.04,ESE,118,0.0,0.0,91,0.00,,,0.00,,2013-12-05 06:22:00,
2013-12-05 01:43:00,68.0,66.0,30.04,ESE,118,0.0,0.0,92,0.00,,,0.00,,2013-12-05 06:43:00,
2013-12-05 01:52:00,68.0,66.0,30.04,ESE,118,0.0,0.0,92,0.00,,,0.00,,2013-12-05 06:52:00,
2013-12-05 02:02:00,68.0,66.0,30.04,ESE,118,0.0,0.0,92,0.00,,,0.00,,2013-12-05 07:02:00,
2013-12-05 02:12:00,68.0,66.0,30.04,ESE,118,0.0,0.0,92,0.00,,,0.00,,2013-12-05 07:12:00,
2013-12-05 03:22:00,67.0,66.0,30.05,NNE,15,0.0,0.0,95,0.00,,,0.00,,2013-12-05 08:22:00,
2013-12-05 03:42:00,67.0,66.0,30.05,NNE,15,0.0,0.0,95,0.00,,,0.00,,2013-12-05 08:42:00,
2013-12-05 03:53:00,67.0,66.0,30.05,NNE,15,0.0,0.0,95,0.00,,,0.00,,2013-12-05 08:53:00,
2013-12-05 04:02:00,67.0,66.0,30.05,NNE,15,0.0,0.0,95,0.00,,,0.00,,2013-12-05 09:02:00,
2013-12-05 04:42:00,67.0,66.0,30.05,NNE,15,0.0,0.0,95,0.00,,,0.00,,2013-12-05 09:42:00,
2013-12-05 05:13:00,67.0,66.0,30.05,NNE,15,0.0,0.0,95,0.00,,,0.00,,2013-12-05 10:13:00,
2013-12-05 05:23:00,67.0,66.0,30.05,NNE,15,0.0,0.0,95,0.00,,,0.00,,2013-12-05 10:23:00,
2013-12-05 05:33:00,67.0,66.0,30.05,NNE,15,0.0,0.0,95,0.00,,,0.00,,2013-12-05 10:33:00,
2013-12-05 07:12:00,66.0,65.0,30.08,NNE,15,0.0,0.0,96,0.00,,,0.00,,2013-12-05 12:12:00,
2013-12-05 07:22:00,66.0,65.0,30.08,NNE,15,0.0,0.0,96,0.00,,,0.00,,2013-12-05 12:22:00,
2013-12-05 07:52:00,66.0,65.0,30.08,NNE,15,0.0,0.0,96,0.00,,,0.00,,2013-12-05 12:52:00,
2013-12-05 08:11:00,68.0,67.0,30.09,NNE,15,0.0,0.0,96,0.00,,,0.00,,2013-12-05 13:11:00,
2013-12-05 08:22:00,68.0,67.0,30.09,NNE,15,0.0,0.0,96,0.00,,,0.00,,2013-12-05 13:22:00,
2013-12-05 08:32:00,68.0,67.0,30.09,NNE,15,0.0,0.0,96,0.00,,,0.00,,2013-12-05 13:32:00,
2013-12-05 09:54:00,80.0,70.0,30.13,SE,132,7.0,9.0,71,0.00,,,0.00,,2013-12-05 14:54:00,
2013-12-05 10:22:00,80.0,70.0,30.13,SE,132,7.0,9.0,71,0.00,,,0.00,,2013-12-05 15:22:00,
2013-12-05 10:34:00,80.0,70.0,30.13,SE,132,7.0,9.0,71,0.00,,,0.00,,2013-12-05 15:34:00,
2013-12-05 10:43:00,80.0,70.0,30.13,SE,132,7.0,9.0,71,0.00,,,0.00,,2013-12-05 15:43:00,
2013-12-05 12:42:00,81.0,71.0,30.10,SSW,193,6.0,7.0,71,0.00,,,0.00,,2013-12-05 17:42:00,
2013-12-05 12:52:00,81.0,69.0,30.09,SSE,165,6.0,7.0,68,0.00,,,0.00,,2013-12-05 17:52:00,
2013-12-05 13:02:00,81.0,69.0,30.09,SSE,165,6.0,7.0,68,0.00,,,0.00,,2013-12-05 18:02:00,
2013-12-05 13:13:00,81.0,69.0,30.09,SSE,165,6.0,7.0,68,0.00,,,0.00,,2013-12-05 18:13:00,
2013-12-05 13:22:00,81.0,69.0,30.09,SSE,165,6.0,7.0,68,0.00,,,0.00,,2013-12-05 18:22:00,
2013-12-05 13:33:00,81.0,69.0,30.09,SSE,165,6.0,7.0,68,0.00,,,0.00,,2013-12-05 18:33:00,
2013-12-05 14:12:00,80.0,70.0,30.07,SE,128,7.0,8.0,71,0.00,,,0.00,,2013-12-05 19:12:00,
2013-12-05 14:22:00,80.0,70.0,30.07,SE,128,7.0,8.0,71,0.00,,,0.00,,2013-12-05 19:22:00,
2013-12-05 14:32:00,80.0,70.0,30.07,SE,128,7.0,8.0,71,0.00,,,0.00,,2013-12-05 19:32:00,
2013-12-05 14:52:00,80.0,71.0,30.06,SSE,153,9.0,9.0,73,0.00,,,0.00,,2013-12-05 19:52:00,
2013-12-05 15:02:00,80.0,71.0,30.06,SSE,153,9.0,9.0,73,0.00,,,0.00,,2013-12-05 20:02:00,
2013-12-05 15:22:00,80.0,70.0,30.06,SSW,193,5.0,5.0,72,0.00,,,0.00,,2013-12-05 20:22:00,
2013-12-05 15:32:00,80.0,70.0,30.06,SSW,193,5.0,5.0,72,0.00,,,0.00,,2013-12-05 20:32:00,
2013-12-05 15:52:00,80.0,70.0,30.06,SSW,193,5.0,5.0,72,0.00,,,0.00,,2013-12-05 20:52:00,
2013-12-05 16:12:00,80.0,71.0,30.06,SE,124,4.0,5.0,74,0.00,,,0.00,,2013-12-05 21:12:00,
2013-12-05 16:22:00,80.0,71.0,30.06,SE,124,4.0,5.0,74,0.00,,,0.00,,2013-12-05 21:22:00,
2013-12-05 16:33:00,80.0,71.0,30.06,SE,124,4.0,5.0,74,0.00,,,0.00,,2013-12-05 21:33:00,
2013-12-05 17:24:00,78.0,70.0,30.06,South,187,4.0,4.0,77,0.00,,,0.00,,2013-12-05 22:24:00,
2013-12-05 17:34:00,78.0,70.0,30.06,South,187,4.0,4.0,77,0.00,,,0.00,,2013-12-05 22:34:00,
2013-12-05 17:42:00,78.0,70.0,30.06,South,187,4.0,4.0,77,0.00,,,0.00,,2013-12-05 22:42:00,
2013-12-05 17:52:00,78.0,70.0,30.06,South,187,4.0,4.0,77,0.00,,,0.00,,2013-12-05 22:52:00,
2013-12-05 18:02:00,78.0,70.0,30.06,South,187,4.0,4.0,77,0.00,,,0.00,,2013-12-05 23:02:00,
2013-12-05 18:22:00,78.0,71.0,30.07,SSE,162,4.0,4.0,79,0.00,,,0.00,,2013-12-05 23:22:00,
2013-12-05 18:33:00,78.0,71.0,30.07,SSE,162,4.0,4.0,79,0.00,,,0.00,,2013-12-05 23:33:00,
2013-12-05 18:43:00,78.0,71.0,30.07,SSE,162,4.0,4.0,79,0.00,,,0.00,,2013-12-05 23:43:00,
2013-12-05 18:53:00,78.0,71.0,30.07,SSE,162,4.0,4.0,79,0.00,,,0.00,,2013-12-05 23:53:00,
2013-12-05 19:50:00,77.0,69.0,30.10,SE,146,4.0,4.0,77,0.00,,,0.00,,2013-12-06 00:50:00,
2013-12-05 20:11:00,77.0,69.0,30.10,SE,146,4.0,4.0,77,0.00,,,0.00,,2013-12-06 01:11:00,
2013-12-05 20:22:00,77.0,69.0,30.10,SE,146,4.0,4.0,77,0.00,,,0.00,,2013-12-06 01:22:00,
2013-12-05 20:32:00,77.0,69.0,30.10,SE,146,4.0,4.0,77,0.00,,,0.00,,2013-12-06 01:32:00,
2013-12-05 21:42:00,77.0,70.0,30.10,SE,145,5.0,6.0,79,0.00,,,0.00,,2013-12-06 02:42:00,
2013-12-05 21:52:00,77.0,70.0,30.10,SE,129,3.0,3.0,79,0.00,,,0.00,,2013-12-06 02:52:00,
2013-12-05 22:12:00,77.0,70.0,30.10,ESE,120,7.0,7.0,78,0.00,,,0.00,,2013-12-06 03:12:00,
2013-12-05 22:22:00,77.0,70.0,30.10,ESE,120,7.0,7.0,78,0.00,,,0.00,,2013-12-06 03:22:00,
2013-12-05 22:44:00,77.0,70.0,30.11,East,96,5.0,7.0,78,0.00,,,0.00,,2013-12-06 03:44:00,
2013-12-05 22:53:00,77.0,70.0,30.11,East,96,5.0,7.0,78,0.00,,,0.00,,2013-12-06 03:53:00,
2013-12-05 23:03:00,77.0,70.0,30.11,East,96,5.0,7.0,78,0.00,,,0.00,,2013-12-06 04:03:00,
2013-12-05 23:23:00,77.0,70.0,30.10,South,177,6.0,6.0,79,0.00,,,0.00,,2013-12-06 04:23:00,
2013-12-05 23:33:00,77.0,70.0,30.10,South,177,6.0,6.0,79,0.00,,,0.00,,2013-12-06 04:33:00,
2013-12-05 23:43:00,77.0,70.0,30.10,South,177,6.0,6.0,79,0.00,,,0.00,,2013-12-06 04:43:00,
2013-12-05 23:53:00,77.0,70.0,30.10,South,177,6.0,6.0,79,0.00,,,0.00,,2013-12-06 04:53:00,